User: anonymous   Login
Location: Fuglau
(48.6333°N, 15.5500°E)
Time: 06:31:46
(UTC+00:00)
Language:

Okean 1-7 - Orbit

View from above orbital plane
View from above orbital plane
View from above satellite
View from above satellite

Ground track
Ground track

The orbit data is extracted from the following two-line orbital elements,

1 23317U 94066A   20152.78390560  .00000160  00000-0  14658-4 0  9994
2 23317  82.5372 182.7650 0021434  81.6734 278.6912 14.87770324386439
Epoch (UTC): 31 May 2020 18:48:49
Eccentricity: 0.0021434
inclination: 82.5372°
perigee height: 590 km
apogee height: 620 km
right ascension of ascending node: 182.7650°
argument of perigee: 81.6734°
revolutions per day: 14.87770324
mean anomaly at epoch: 278.6912°
orbit number at epoch: 38643

The dashed part of the orbit path shows where the satellite is in the earth's shadow,  

DLR